TimeCET,TemperatureF,Dew PointF,Humidity,Sea Level PressureIn,VisibilityMPH,Wind Direction,Wind SpeedMPH,Gust SpeedMPH,PrecipitationIn,Events,Conditions,WindDirDegrees,DateUTC
12:00 AM,37,36,93,30.31,,NW,1.2,,,,,320,2012-11-14 23:00:00
12:20 AM,37.4,35.6,93,30.24,5.0,Calm,Calm,-,N/A,Fog,Fog,0,2012-11-14 23:20:00
12:50 AM,35.6,35.6,100,30.24,5.0,Calm,Calm,-,N/A,Fog,Fog,0,2012-11-14 23:50:00
1:00 AM,36,35,93,30.30,5,WNW,2.3,,,,Mist,300,2012-11-15 00:00:00
1:20 AM,35.6,33.8,93,30.24,4.3,Variable,1.2,-,N/A,Fog,Fog,0,2012-11-15 00:20:00
1:50 AM,35.6,35.6,100,30.24,3.7,Calm,Calm,-,N/A,Fog,Fog,0,2012-11-15 00:50:00
2:00 AM,35,34,94,30.30,,NW,1.2,,,,,310,2012-11-15 01:00:00
2:50 AM,33.8,33.8,100,30.24,3.7,Variable,1.2,-,N/A,,Unknown,0,2012-11-15 01:50:00
3:00 AM,35,33,92,30.30,,WNW,2.3,,,,,290,2012-11-15 02:00:00
3:20 AM,33.8,32.0,93,30.21,3.1,Calm,Calm,-,N/A,,Mist,0,2012-11-15 02:20:00
3:50 AM,33.8,32.0,93,30.21,3.1,Variable,1.2,-,N/A,,Mist,0,2012-11-15 02:50:00
4:20 AM,33.8,33.8,100,30.21,3.1,West,1.2,-,N/A,,Mist,270,2012-11-15 03:20:00
4:50 AM,32.0,32.0,100,30.21,3.1,Calm,Calm,-,N/A,,Mist,0,2012-11-15 03:50:00
5:00 AM,34,33,93,30.29,,NW,1.2,,,,,310,2012-11-15 04:00:00
5:20 AM,32.0,32.0,100,30.21,3.1,WNW,1.2,-,N/A,,Partly Cloudy,300,2012-11-15 04:20:00
5:50 AM,33.8,32.0,93,30.21,3.1,Variable,1.2,-,N/A,,Scattered Clouds,0,2012-11-15 04:50:00
6:00 AM,33,31,90,30.29,,WSW,2.3,,,,,250,2012-11-15 05:00:00
6:20 AM,33.8,32.0,93,30.21,0.3,Variable,1.2,-,N/A,Fog,Fog,0,2012-11-15 05:20:00
6:50 AM,33.8,33.8,100,30.21,0.4,Calm,Calm,-,N/A,Fog,Fog,0,2012-11-15 05:50:00
7:00 AM,35,34,96,30.29,0,Calm,Calm,,,Fog,Heavy Fog,,2012-11-15 06:00:00
7:20 AM,35.6,33.8,93,30.21,0.2,Variable,1.2,-,N/A,Fog,Fog,0,2012-11-15 06:20:00
7:50 AM,37.4,37.4,100,30.21,0.2,Variable,1.2,-,N/A,Fog,Fog,0,2012-11-15 06:50:00
8:00 AM,38,37,97,30.28,,NNW,1.2,,,,,330,2012-11-15 07:00:00
8:20 AM,39.2,39.2,100,30.21,0.3,Calm,Calm,-,N/A,Fog,Fog,0,2012-11-15 07:20:00
8:50 AM,39.2,39.2,100,30.21,0.3,Variable,1.2,-,N/A,Fog,Fog,0,2012-11-15 07:50:00
9:00 AM,40,39,93,30.28,,WNW,2.3,,,,,290,2012-11-15 08:00:00
9:20 AM,41.0,41.0,100,30.21,0.4,Variable,1.2,-,N/A,Fog,Fog,0,2012-11-15 08:20:00
9:50 AM,41.0,39.2,93,30.21,0.4,SW,4.6,-,N/A,Fog,Fog,230,2012-11-15 08:50:00
10:20 AM,41.0,41.0,100,30.21,0.4,Variable,2.3,-,N/A,Fog,Fog,0,2012-11-15 09:20:00
10:50 AM,41.0,41.0,100,30.21,0.2,Variable,3.5,-,N/A,Fog,Fog,0,2012-11-15 09:50:00
11:20 AM,41.0,41.0,100,30.21,0.4,Calm,Calm,-,N/A,Fog,Fog,0,2012-11-15 10:20:00
11:50 AM,41.0,39.2,93,30.18,0.7,Variable,1.2,-,N/A,,Overcast,0,2012-11-15 10:50:00
12:00 PM,41,40,96,30.23,,NE,3.5,,,,,50,2012-11-15 11:00:00
12:20 PM,41.0,39.2,93,30.18,0.8,Variable,2.3,-,N/A,,Overcast,0,2012-11-15 11:20:00
12:50 PM,41.0,39.2,93,30.18,1.0,Variable,2.3,-,N/A,,Overcast,0,2012-11-15 11:50:00
1:00 PM,42,41,93,30.21,1,NNW,2.3,,,,Mist,330,2012-11-15 12:00:00
1:20 PM,41.0,39.2,93,30.15,1.0,Variable,1.2,-,N/A,,Overcast,0,2012-11-15 12:20:00
1:50 PM,42.8,41.0,93,30.15,0.9,Variable,1.2,-,N/A,,Overcast,0,2012-11-15 12:50:00
2:00 PM,42,41,93,30.20,,NNE,2.3,,,,,30,2012-11-15 13:00:00
2:20 PM,42.8,41.0,93,30.15,0.9,Variable,1.2,-,N/A,,Overcast,0,2012-11-15 13:20:00
2:50 PM,42.8,41.0,93,30.12,0.9,Variable,2.3,-,N/A,,Overcast,0,2012-11-15 13:50:00
3:00 PM,42,41,93,30.18,,North,3.5,,,,,350,2012-11-15 14:00:00
3:20 PM,42.8,41.0,93,30.12,0.9,Variable,1.2,-,N/A,,Overcast,0,2012-11-15 14:20:00
3:50 PM,42.8,41.0,93,30.12,0.8,Variable,1.2,-,N/A,,Overcast,0,2012-11-15 14:50:00
4:20 PM,42.8,41.0,93,30.12,0.7,Variable,2.3,-,N/A,,Overcast,0,2012-11-15 15:20:00
4:50 PM,41.0,41.0,100,30.12,0.7,Variable,1.2,-,N/A,,Overcast,0,2012-11-15 15:50:00
5:00 PM,42,40,92,30.19,,NW,2.3,,,,,310,2012-11-15 16:00:00
5:20 PM,41.0,41.0,100,30.15,1.1,Variable,1.2,-,N/A,,Overcast,0,2012-11-15 16:20:00
5:50 PM,41.0,41.0,100,30.15,1.9,Variable,1.2,-,N/A,,Overcast,0,2012-11-15 16:50:00
6:00 PM,42,40,92,30.19,,WNW,3.5,,,,,290,2012-11-15 17:00:00
6:20 PM,41.0,41.0,100,30.15,-9999.0,Variable,1.2,-,N/A,,Overcast,0,2012-11-15 17:20:00
6:50 PM,41.0,41.0,100,30.15,-9999.0,Variable,1.2,-,N/A,,Overcast,0,2012-11-15 17:50:00
7:00 PM,42,41,93,30.20,2,North,3.5,,,,Mist,350,2012-11-15 18:00:00
7:20 PM,41.0,41.0,100,30.15,1.6,Variable,2.3,-,N/A,,Overcast,0,2012-11-15 18:20:00
7:50 PM,41.0,41.0,100,30.15,1.6,Variable,2.3,-,N/A,Fog,Patches of Fog,0,2012-11-15 18:50:00
8:00 PM,42,41,93,30.19,,NNW,2.3,,,,,340,2012-11-15 19:00:00
8:20 PM,41.0,41.0,100,30.15,1.2,Variable,2.3,-,N/A,Fog,Patches of Fog,0,2012-11-15 19:20:00
8:50 PM,41.0,41.0,100,30.15,1.1,Variable,1.2,-,N/A,,Drizzle,0,2012-11-15 19:50:00
9:00 PM,42,41,94,30.19,,NW,2.3,,,,,320,2012-11-15 20:00:00
9:20 PM,41.0,41.0,100,30.15,0.7,Calm,Calm,-,N/A,,Drizzle,0,2012-11-15 20:20:00
9:50 PM,41.0,41.0,100,30.15,0.7,Variable,2.3,-,N/A,,Overcast,0,2012-11-15 20:50:00
10:20 PM,41.0,41.0,100,30.15,0.5,Variable,2.3,-,N/A,Fog,Light Fog,0,2012-11-15 21:20:00
10:23 PM,41.0,41.0,100,30.15,0.5,Variable,2.3,-,N/A,Fog,Light Fog,0,2012-11-15 21:23:00
10:50 PM,41.0,41.0,100,30.15,0.7,Variable,1.2,-,N/A,,Overcast,0,2012-11-15 21:50:00
11:20 PM,41.0,41.0,100,30.15,0.8,Variable,3.5,-,N/A,,Overcast,0,2012-11-15 22:20:00
11:50 PM,41.0,41.0,100,30.15,1.1,Calm,Calm,-,N/A,,Overcast,0,2012-11-15 22:50:00